Find Starlink 3460

NORAD ID: 51755 Int'l Des: 2022-016 Owner: SPXS Country: US Constellation: starlink operational
LEOCIRCULAR

Live-Position

3D-Globus wird geladen...

Über Starlink 3460

Beschreibung wird geladen...

Nächste Überflüge

Passes for default location (London). Set your location on the main map for personalized predictions.

Höhenverlauf

Loading altitude history...

Zweizeiliger Elementsatz

1 51755U 22016AT 26106.38412839 .00000496 00000-0 49233-4 0 9991
2 51755 53.2168 139.9040 0001329 79.1988 280.9154 15.08838693229398
Epoch: 16. Apr. 2026 • Age: 24 hours

Aktueller Status

Höhe 543.2 km
Geschwindigkeit 7.59 km/s
Subsatellitenpunkt -12.36°S, 145.61°E
Startdatum 21. Feb. 2022
Alter 4.1 years
Typ internet

Technische Details

Klassifizierung Payload
Masse 297.00 kg
Trockenmasse 275.00 kg
Gesamtmasse 297.00 kg
Länge 0.20 m
Durchmesser 2.80 m
Spannweite 9.00 m
Form Box + pan
Hersteller SPXS
Bus-Typ Starlink
Phasenstatus In Orbit
Besitzer/Staat SPXS/US

Most Searched